{"data":{"norad_id":67402,"intl_designator":"2026-004AR","name":"CONNECTA IOT-15","alt_names":[],"object_type":"PAYLOAD","status":"ACTIVE","operator":null,"country":"TURK","launch_date":"2026-01-11","launch_site_code":"AFWTR","launch_vehicle":null,"mission":null,"orbit_class":"UNKNOWN","rcs_meters":null,"size_class":null,"mass_kg":null,"dimensions":null,"purposes":[],"wikipedia_slug":null,"has_3d_model":false,"image_url":null,"decayed_at":null,"tle_current":{"epoch":"2026-05-24T23:53:01.221792Z","epoch_age_seconds":71530,"freshness":"FRESH","line1":"1 67402U 26004AR  26144.99515303  .00002591  00000+0  13242-3 0  9994","line2":"2 67402  97.4565 144.2011 0005061  64.8032 295.3726 15.17553363 20213","mean_motion":15.17553363,"eccentricity":0.0005061,"inclination_deg":97.4565,"raan_deg":144.2011,"arg_perigee_deg":64.8032,"mean_anomaly_deg":295.3726,"bstar":0.00013242,"rev_number":2021,"period_min":94.889579181144,"perigee_km":509.74991476399,"apogee_km":516.72536417406,"semimajor_km":6891.374639469,"source":"CELESTRAK","updated_at":"2026-05-25T13:38:06.962923Z"}}}